EW4781 Weather Reports


Display with metric or nautical units.
time (UTC)temp
F
wind
direction
speed
MPH
gust
MPH
rain 1hr
in
rain 24hr
in
rain mn
in
humidity
%
barometer
mb
20260509080537 43 59 0.0 1.0 0.00 0.00 0.00 78 1027.7
20260509080035 43 60 0.0 0.0 0.00 0.00 0.00 76 1028.0
20260509075531 43 60 0.0 0.0 0.00 0.00 0.00 75 1027.8
20260509075030 44 60 0.0 0.0 0.00 0.00 0.00 76 1027.6
20260509074526 44 60 0.0 0.0 0.00 0.00 0.00 75 1027.8
20260509074023 44 60 0.0 0.0 0.00 0.00 0.00 73 1027.7
20260509073519 44 59 0.0 0.0 0.00 0.00 0.00 74 1027.7
20260509073016 44 59 0.0 0.0 0.00 0.00 0.00 74 1027.7
20260509072512 44 60 0.0 0.0 0.00 0.00 0.00 74 1027.6
20260509072009 44 60 0.0 0.0 0.00 0.00 0.00 74 1027.8
20260509071506 44 53 0.0 0.0 0.00 0.00 0.00 73 1028.1
20260509071003 45 53 0.0 0.0 0.00 0.00 0.00 73 1028.0
20260509070501 45 53 0.0 0.0 0.00 0.00 0.00 70 1028.3
20260509065956 45 53 0.0 0.0 0.00 0.00 0.00 70 1028.0
20260509065452 45 53 0.0 0.0 0.00 0.00 0.00 71 1028.1
20260509064948 45 53 0.0 0.0 0.00 0.00 0.00 70 1028.0
20260509064446 45 54 0.0 0.0 0.00 0.00 0.00 72 1028.1
20260509063944 45 56 0.0 0.0 0.00 0.00 0.00 73 1028.3
20260509063439 45 56 0.0 0.0 0.00 0.00 0.00 69 1028.4
20260509062936 45 54 0.0 1.0 0.00 0.00 0.00 69 1028.4
20260509062434 45 54 0.0 1.0 0.00 0.00 0.00 68 1028.6
20260509061931 44 54 0.0 0.0 0.00 0.00 0.00 69 1028.6
20260509061428 44 54 0.0 0.0 0.00 0.00 0.00 76 1028.8
20260509060925 44 53 1.0 1.0 0.00 0.00 0.00 74 1028.8
20260509060423 44 54 0.0 0.0 0.00 0.00 0.00 71 1028.8
20260509055918 44 54 0.0 0.0 0.00 0.00 0.00 72 1029.0
20260509055413 45 54 0.0 0.0 0.00 0.00 0.00 73 1029.1
20260509054910 45 54 0.0 1.0 0.00 0.00 0.00 67 1029.1
20260509054407 44 54 0.0 1.0 0.00 0.00 0.00 74 1029.0
20260509053905 44 53 0.0 0.0 0.00 0.00 0.00 76 1029.0
20260509053402 44 53 1.0 1.0 0.00 0.00 0.00 69 1029.1
20260509052901 44 54 0.0 0.0 0.00 0.00 0.00 70 1029.3
20260509052357 44 54 0.0 0.0 0.00 0.00 0.00 70 1029.3
20260509051855 44 54 0.0 0.0 0.00 0.00 0.00 70 1029.1
20260509051353 44 54 0.0 0.0 0.00 0.00 0.00 68 1029.4
20260509050850 44 54 0.0 0.0 0.00 0.00 0.00 70 1029.2
20260509050346 44 54 0.0 0.0 0.00 0.00 0.00 70 1029.4
20260509045843 44 54 0.0 0.0 0.00 0.00 0.00 71 1029.5
20260509045340 44 54 0.0 1.0 0.00 0.00 0.00 73 1029.4
20260509044837 45 54 0.0 0.0 0.00 0.00 0.00 69 1029.5
20260509044335 45 54 0.0 0.0 0.00 0.00 0.00 68 1029.5
20260509043831 45 54 1.0 1.0 0.00 0.00 0.00 68 1029.4
20260509043327 45 54 0.0 0.0 0.00 0.00 0.00 67 1029.6
20260509042823 45 54 1.0 1.0 0.00 0.00 0.00 70 1029.5
20260509042320 45 54 0.0 0.0 0.00 0.00 0.00 70 1029.5
20260509041817 44 54 1.0 1.0 0.00 0.00 0.00 67 1029.5
20260509041314 44 54 0.0 1.0 0.00 0.00 0.00 69 1029.6
20260509040812 44 54 0.0 0.0 0.00 0.00 0.00 69 1029.6
20260509040309 44 54 0.0 0.0 0.00 0.00 0.00 69 1029.7
20260509035806 44 54 0.0 0.0 0.00 0.10 0.10 68 1029.6
20260509035306 43 54 0.0 0.0 0.00 0.10 0.10 69 1029.5
20260509034759 43 54 0.0 0.0 0.00 0.10 0.10 69 1029.7
20260509034257 43 54 0.0 0.0 0.00 0.10 0.10 69 1029.7
20260509033754 43 54 0.0 0.0 0.00 0.10 0.10 68 1029.5
20260509033251 42 54 1.0 1.0 0.00 0.10 0.10 69 1029.7
20260509032748 42 54 1.0 1.0 0.00 0.10 0.10 69 1029.7
20260509032244 43 54 0.0 1.0 0.00 0.10 0.10 69 1029.6
20260509031742 43 54 0.0 0.0 0.00 0.10 0.10 66 1029.9
20260509031240 43 54 0.0 1.0 0.00 0.10 0.10 69 1029.9
20260509030738 43 54 1.0 1.0 0.00 0.10 0.10 69 1029.9
20260509030235 43 54 0.0 0.0 0.00 0.10 0.10 70 1029.7
20260509025732 43 54 0.0 0.0 0.00 0.10 0.10 69 1029.7
20260509025227 43 54 0.0 0.0 0.00 0.10 0.10 69 1030.0
20260509024722 43 54 0.0 0.0 0.00 0.10 0.10 70 1030.0
20260509024218 43 54 1.0 1.0 0.00 0.10 0.10 71 1030.1
20260509023716 43 54 0.0 0.0 0.00 0.10 0.10 70 1030.0
20260509023213 44 54 0.0 0.0 0.00 0.10 0.10 69 1029.9
20260509022709 44 54 0.0 0.0 0.00 0.10 0.10 70 1030.2
20260509022207 44 54 0.0 1.0 0.00 0.10 0.10 70 1029.9
20260509021704 44 54 0.0 1.0 0.00 0.10 0.10 70 1030.0
20260509021201 44 54 0.0 1.0 0.00 0.10 0.10 70 1029.9
20260509020659 44 54 0.0 0.0 0.00 0.10 0.10 70 1030.1
20260509020156 45 54 0.0 0.0 0.00 0.10 0.10 70 1030.0
20260509015654 46 54 0.0 0.0 0.00 0.10 0.10 67 1030.0
20260509015152 46 54 0.0 0.0 0.00 0.10 0.10 65 1030.0
20260509014648 46 54 0.0 0.0 0.00 0.10 0.10 64 1030.0
20260509014145 46 54 0.0 0.0 0.00 0.10 0.10 64 1030.0
20260509013642 46 54 0.0 0.0 0.00 0.10 0.10 61 1030.0
20260509013138 46 54 0.0 1.0 0.00 0.10 0.10 63 1030.0
20260509012634 47 54 0.0 0.0 0.00 0.10 0.10 57 1029.7
20260509012131 47 54 0.0 0.0 0.00 0.10 0.10 54 1029.6
20260509011630 47 54 0.0 0.0 0.00 0.10 0.10 55 1029.7
20260509011126 48 54 0.0 1.0 0.00 0.10 0.10 55 1029.4
20260509010624 48 54 0.0 0.0 0.00 0.10 0.10 56 1029.6
20260509010120 48 54 0.0 1.0 0.00 0.10 0.10 56 1029.6
20260509005618 48 54 0.0 0.0 0.00 0.10 0.10 55 1029.2
20260509005114 48 54 0.0 0.0 0.00 0.10 0.10 54 1029.1
20260509004610 48 54 0.0 0.0 0.00 0.10 0.10 55 1029.3
20260509004107 48 54 0.0 0.0 0.00 0.10 0.10 57 1028.9
20260509003606 48 54 0.0 0.0 0.00 0.10 0.10 58 1029.0
20260509003103 48 54 0.0 0.0 0.00 0.10 0.10 64 1029.2
20260509002600 48 54 0.0 1.0 0.00 0.10 0.10 59 1029.2
20260509002057 49 54 0.0 0.0 0.00 0.10 0.10 58 1029.0
20260509001554 50 53 0.0 0.0 0.00 0.10 0.10 60 1029.0
20260509001050 50 53 0.0 0.0 0.00 0.10 0.10 56 1028.9
20260509000549 50 55 0.0 0.0 0.00 0.10 0.10 55 1029.0
20260509000044 50 56 1.0 1.0 0.00 0.10 0.10 54 1028.7
20260508235542 51 42 0.0 1.0 0.00 0.10 0.10 53 1028.8
20260508235038 51 43 1.0 1.0 0.00 0.10 0.10 50 1028.9
20260508234536 52 39 1.0 1.0 0.00 0.10 0.10 52 1028.7
20260508234033 52 32 0.0 0.0 0.00 0.10 0.10 50 1028.8
20260508233532 52 351 1.0 2.0 0.00 0.10 0.10 47 1028.6
20260508233029 53 311 2.0 2.0 0.00 0.10 0.10 47 1028.7
20260508232526 53 286 4.0 5.0 0.00 0.10 0.10 46 1028.4
20260508232022 54 279 3.0 3.0 0.00 0.10 0.10 45 1028.5
20260508231520 54 339 1.0 1.0 0.00 0.10 0.10 47 1028.4
20260508231017 53 26 1.0 1.0 0.00 0.10 0.10 47 1028.3
20260508230514 54 328 1.0 1.0 0.00 0.10 0.10 48 1028.6
20260508230010 55 301 3.0 3.0 0.00 0.10 0.10 46 1028.6
20260508225508 55 16 1.0 1.0 0.00 0.10 0.10 46 1028.5
20260508225004 55 302 2.0 3.0 0.00 0.10 0.10 46 1028.6
20260508224502 54 8 1.0 1.0 0.00 0.10 0.10 48 1028.7
20260508223959 54 323 3.0 3.0 0.00 0.10 0.10 49 1028.7
20260508223457 55 281 3.0 5.0 0.00 0.10 0.10 46 1028.4
20260508222954 55 247 2.0 2.0 0.00 0.10 0.10 49 1028.6
20260508222451 55 282 3.0 3.0 0.00 0.10 0.10 48 1028.5
20260508221948 55 290 2.0 2.0 0.00 0.10 0.10 48 1028.4
20260508221444 55 301 2.0 2.0 0.00 0.10 0.10 47 1028.4
20260508220940 55 259 2.0 2.0 0.00 0.10 0.10 47 1028.4
20260508220437 57 283 3.0 3.0 0.00 0.10 0.10 47 1028.5
20260508215933 55 47 1.0 1.0 0.00 0.10 0.10 49 1028.4
20260508215430 55 40 2.0 3.0 0.00 0.10 0.10 48 1028.4
20260508214927 55 278 2.0 2.0 0.00 0.10 0.10 50 1028.4
20260508214425 55 304 3.0 3.0 0.00 0.10 0.10 48 1028.4
20260508213920 54 284 2.0 2.0 0.00 0.10 0.10 48 1028.5
20260508213418 54 33 3.0 3.0 0.00 0.10 0.10 48 1028.5
20260508212913 55 327 2.0 2.0 0.00 0.10 0.10 48 1028.6
20260508212410 56 19 2.0 3.0 0.00 0.10 0.10 49 1028.7
20260508211906 56 15 3.0 3.0 0.00 0.10 0.10 48 1028.6
20260508211402 55 272 3.0 3.0 0.00 0.10 0.10 49 1028.4
20260508210900 55 225 3.0 3.0 0.00 0.10 0.10 49 1028.5
20260508210356 54 23 1.0 2.0 0.00 0.10 0.10 51 1028.9
20260508205852 54 301 3.0 3.0 0.00 0.10 0.10 51 1029.0
20260508205349 53 36 1.0 1.0 0.00 0.10 0.10 50 1028.9
20260508204845 53 10 3.0 5.0 0.00 0.10 0.10 52 1028.8
20260508204342 55 32 3.0 3.0 0.00 0.10 0.10 49 1028.8
20260508203838 54 359 2.0 2.0 0.00 0.10 0.10 51 1028.5
20260508203334 55 307 2.0 3.0 0.00 0.10 0.10 49 1029.0
20260508202830 55 287 3.0 3.0 0.00 0.10 0.10 51 1028.8
20260508202328 53 224 3.0 5.0 0.00 0.10 0.10 53 1029.0
20260508201825 52 319 2.0 2.0 0.00 0.10 0.10 56 1029.0
20260508201322 52 270 5.0 7.0 0.00 0.10 0.10 52 1029.0
20260508200818 53 294 4.0 5.0 0.00 0.10 0.10 50 1029.2
20260508200315 54 336 1.0 1.0 0.00 0.10 0.10 48 1029.3
20260508195811 55 354 2.0 3.0 0.00 0.10 0.10 50 1029.3
20260508195308 54 279 3.0 5.0 0.00 0.10 0.10 56 1029.2
20260508194804 53 6 2.0 2.0 0.00 0.10 0.10 51 1029.3
20260508194302 54 40 2.0 2.0 0.00 0.10 0.10 51 1029.4
20260508193759 54 33 1.0 1.0 0.00 0.10 0.10 49 1029.4
20260508193255 54 337 2.0 3.0 0.00 0.10 0.10 50 1029.3
20260508192751 53 8 1.0 2.0 0.00 0.10 0.10 49 1029.5
20260508192248 52 309 2.0 2.0 0.00 0.10 0.10 50 1029.5
20260508191746 53 341 2.0 2.0 0.00 0.10 0.10 54 1029.6
20260508191243 52 334 3.0 3.0 0.00 0.10 0.10 50 1030.1
20260508190740 53 215 4.0 6.0 0.00 0.10 0.10 52 1029.9
20260508190236 52 32 4.0 5.0 0.00 0.10 0.10 54 1029.9
20260508185733 52 247 4.0 5.0 0.00 0.10 0.10 51 1030.0
20260508185230 52 13 4.0 5.0 0.00 0.10 0.10 52 1030.0
20260508184727 51 219 3.0 5.0 0.00 0.10 0.10 58 1029.9
20260508184224 51 291 10.0 14.0 0.00 0.10 0.10 53 1030.0
20260508183721 51 199 3.0 3.0 0.00 0.10 0.10 53 1030.0
20260508183217 52 230 2.0 3.0 0.00 0.10 0.10 64 1030.0
20260508182713 51 164 3.0 3.0 0.00 0.10 0.10 55 1030.1
20260508182210 51 263 5.0 6.0 0.00 0.10 0.10 59 1030.1
20260508181706 51 240 4.0 5.0 0.00 0.10 0.10 59 1030.1
20260508181203 50 293 11.0 13.0 0.00 0.10 0.10 59 1030.4
20260508180700 50 272 9.0 10.0 0.00 0.10 0.10 61 1030.3
20260508180157 50 268 9.0 13.0 0.00 0.10 0.10 60 1030.3
20260508175653 50 55 1.0 1.0 0.00 0.10 0.10 61 1030.3
20260508175150 47 22 1.0 2.0 0.00 0.10 0.10 68 1030.5
20260508174648 46 297 3.0 3.0 0.00 0.10 0.10 68 1030.7
20260508174144 48 238 3.0 5.0 0.00 0.10 0.10 67 1030.5
20260508173641 49 248 2.0 2.0 0.00 0.10 0.10 66 1030.7
20260508173137 48 303 2.0 2.0 0.00 0.10 0.10 69 1030.6
20260508172629 47 284 2.0 2.0 0.00 0.10 0.10 70 1030.7
20260508172125 47 181 3.0 5.0 0.00 0.10 0.10 74 1030.8
20260508171622 48 236 4.0 5.0 0.00 0.10 0.10 71 1030.8
20260508171118 48 212 3.0 6.0 0.00 0.10 0.10 77 1030.9
20260508170616 46 243 3.0 3.0 0.00 0.10 0.10 77 1031.0
20260508170113 46 256 4.0 7.0 0.00 0.10 0.10 80 1030.8
20260508165610 44 278 5.0 6.0 0.00 0.10 0.10 79 1031.2
20260508165107 44 282 6.0 6.0 0.00 0.10 0.10 81 1031.2
20260508164603 44 316 1.0 1.0 0.00 0.10 0.10 82 1031.2
20260508164100 45 1 1.0 1.0 0.00 0.10 0.10 80 1031.2
20260508163557 44 224 2.0 3.0 0.00 0.10 0.10 81 1031.2
20260508163054 44 31 2.0 2.0 0.00 0.10 0.10 83 1031.2
20260508162551 43 257 2.0 2.0 0.00 0.10 0.10 83 1031.3
20260508162048 43 48 1.0 1.0 0.00 0.10 0.10 83 1031.4
20260508161545 44 234 2.0 3.0 0.00 0.10 0.10 83 1031.3
20260508161042 44 224 3.0 3.0 0.00 0.10 0.10 85 1031.2
20260508160541 43 283 2.0 2.0 0.00 0.10 0.10 83 1031.4
20260508160037 42 292 4.0 5.0 0.00 0.10 0.10 88 1031.4
20260508155534 42 36 0.0 0.0 0.00 0.10 0.10 89 1031.4
20260508155031 41 318 3.0 3.0 0.00 0.10 0.10 88 1031.4
20260508154528 41 20 2.0 2.0 0.00 0.10 0.10 89 1031.4
20260508154025 41 16 0.0 1.0 0.00 0.10 0.10 91 1031.3
20260508153522 41 44 1.0 1.0 0.00 0.10 0.10 92 1031.4
20260508153019 41 203 2.0 2.0 0.00 0.10 0.10 94 1031.3
20260508152516 41 170 2.0 2.0 0.00 0.10 0.10 95 1031.3
20260508152011 40 121 0.0 1.0 0.00 0.10 0.10 97 1031.2
20260508151508 40 108 1.0 1.0 0.00 0.10 0.10 97 1031.5
20260508151004 39 115 1.0 2.0 0.00 0.10 0.10 97 1031.2
20260508150502 39 100 0.0 0.0 0.00 0.10 0.10 98 1031.1
20260508145957 39 106 1.0 1.0 0.00 0.10 0.10 98 1031.2
20260508145454 38 126 1.0 1.0 0.00 0.10 0.10 97 1031.3
20260508144950 39 102 1.0 1.0 0.00 0.10 0.10 98 1031.1
20260508144448 39 145 4.0 5.0 0.00 0.10 0.10 97 1031.1
20260508143945 39 110 1.0 1.0 0.00 0.10 0.10 98 1031.1
20260508143443 39 108 1.0 1.0 0.00 0.10 0.10 98 1031.1
20260508142939 39 37 0.0 0.0 0.00 0.10 0.10 99 1031.1
20260508142437 39 143 1.0 2.0 0.00 0.10 0.10 99 1031.0
20260508141933 38 142 0.0 0.0 0.00 0.10 0.10 99 1031.0
20260508141429 37 331 1.0 1.0 0.00 0.10 0.10 99 1030.9
20260508140927 38 88 0.0 0.0 0.00 0.10 0.10 99 1031.0
20260508140424 37 101 0.0 0.0 0.00 0.10 0.10 99 1030.9
20260508135920 37 202 1.0 2.0 0.00 0.10 0.10 99 1030.9
20260508135416 36 22 1.0 2.0 0.00 0.10 0.10 99 1031.3
20260508134913 36 136 0.0 0.0 0.00 0.10 0.10 99 1031.2
20260508134409 36 143 0.0 0.0 0.00 0.10 0.10 99 1031.2
20260508133906 35 104 0.0 0.0 0.00 0.10 0.10 99 1031.0
20260508133404 35 103 1.0 2.0 0.05 0.10 0.10 99 1031.3
20260508132901 35 113 1.0 1.0 0.05 0.10 0.10 99 1031.4
20260508132359 35 183 2.0 2.0 0.07 0.09 0.09 99 1031.2
20260508131855 35 105 1.0 1.0 0.07 0.09 0.09 99 1031.2
20260508131350 35 112 1.0 1.0 0.12 0.09 0.09 99 1031.2
20260508130848 35 187 1.0 1.0 0.05 0.08 0.08 99 1031.5
20260508130344 35 217 0.0 0.0 0.00 0.07 0.07 99 1031.2
20260508125840 35 233 0.0 0.0 0.00 0.07 0.07 99 1031.2
20260508125336 35 240 1.0 1.0 0.00 0.07 0.07 99 1031.2
20260508124835 35 9 0.0 0.0 0.00 0.07 0.07 99 1030.9
20260508124332 35 274 1.0 1.0 0.00 0.07 0.07 98 1030.8
20260508123830 35 242 2.0 2.0 0.00 0.07 0.07 98 1031.1
20260508123328 35 157 1.0 2.0 0.00 0.07 0.07 98 1031.0
20260508122824 35 105 1.0 2.0 0.07 0.07 0.07 97 1030.8
20260508122321 36 64 0.0 1.0 0.07 0.07 0.07 97 1030.7
20260508121818 36 9 1.0 2.0 0.07 0.07 0.07 97 1030.8
20260508121317 36 28 0.0 0.0 0.07 0.06 0.06 97 1030.9
20260508120814 36 56 0.0 0.0 0.07 0.06 0.06 96 1030.6
20260508120312 36 52 0.0 0.0 0.12 0.06 0.06 96 1030.8
20260508115809 36 358 1.0 2.0 0.12 0.05 0.05 96 1030.7
20260508115307 36 85 1.0 1.0 0.07 0.04 0.04 95 1030.5
20260508114803 36 38 0.0 0.0 0.05 0.03 0.03 95 1030.2
20260508114300 37 18 1.0 1.0 0.12 0.03 0.03 94 1030.3
20260508113756 37 332 2.0 2.0 0.12 0.02 0.02 93 1030.2
20260508113254 38 43 0.0 0.0 0.05 0.01 0.01 93 1030.0
20260508112750 38 53 0.0 0.0 0.00 0.00 0.00 92 1030.0
20260508112247 38 55 0.0 0.0 0.00 0.00 0.00 92 1029.6
20260508111743 38 56 0.0 0.0 0.00 0.00 0.00 92 1029.6
20260508111241 38 56 0.0 0.0 0.00 0.00 0.00 92 1029.5
20260508110738 38 56 0.0 0.0 0.00 0.00 0.00 92 1029.3
20260508110235 38 50 0.0 0.0 0.00 0.00 0.00 92 1029.5
20260508105730 38 57 0.0 0.0 0.00 0.00 0.00 93 1029.4
20260508105227 38 57 0.0 0.0 0.00 0.00 0.00 92 1029.6
20260508104724 38 57 0.0 0.0 0.00 0.00 0.00 92 1029.6
20260508104221 38 54 0.0 0.0 0.00 0.00 0.00 92 1029.4
20260508103719 38 53 0.0 0.0 0.00 0.00 0.00 92 1029.4
20260508103215 38 33 0.0 0.0 0.00 0.00 0.00 92 1029.6
20260508102712 38 53 0.0 0.0 0.00 0.00 0.00 92 1029.4
20260508102210 38 20 0.0 0.0 0.00 0.00 0.00 93 1029.4
20260508101707 38 69 0.0 0.0 0.00 0.00 0.00 93 1029.6
20260508101205 38 71 0.0 0.0 0.00 0.00 0.00 93 1029.4
20260508100702 37 99 0.0 0.0 0.00 0.00 0.00 93 1029.5
20260508100200 37 82 0.0 0.0 0.00 0.00 0.00 94 1029.5
20260508095656 37 99 0.0 0.0 0.00 0.00 0.00 94 1029.9
20260508095154 37 112 0.0 0.0 0.00 0.00 0.00 94 1029.6
20260508094650 37 149 0.0 1.0 0.00 0.00 0.00 93 1030.0
20260508094147 37 121 1.0 1.0 0.00 0.00 0.00 93 1030.1
20260508093644 38 149 1.0 2.0 0.00 0.00 0.00 93 1029.9
20260508093142 38 84 1.0 1.0 0.00 0.00 0.00 92 1029.9
20260508092639 38 63 0.0 0.0 0.00 0.00 0.00 92 1029.9
20260508092138 38 46 0.0 0.0 0.00 0.00 0.00 93 1029.9
20260508091634 38 114 0.0 0.0 0.00 0.00 0.00 93 1030.1
20260508091132 37 222 2.0 2.0 0.00 0.00 0.00 93 1030.2
20260508090630 37 191 2.0 2.0 0.00 0.00 0.00 93 1030.2
20260508090127 37 182 0.0 0.0 0.00 0.00 0.00 92 1030.2
20260508085622 38 143 2.0 2.0 0.00 0.00 0.00 91 1030.0
20260508085120 38 246 1.0 2.0 0.00 0.00 0.00 91 1030.2
20260508084616 38 299 1.0 2.0 0.00 0.00 0.00 92 1029.9
20260508084114 37 326 0.0 0.0 0.00 0.00 0.00 92 1029.9
20260508083611 38 215 1.0 1.0 0.00 0.00 0.00 92 1030.1
20260508083108 38 240 1.0 1.0 0.00 0.00 0.00 91 1030.1
20260508082603 37 290 5.0 7.0 0.00 0.00 0.00 92 1029.9
20260508082101 37 23 2.0 2.0 0.00 0.00 0.00 92 1029.7
20260508081558 37 31 0.0 0.0 0.00 0.00 0.00 91 1029.9
20260508081054 38 341 1.0 2.0 0.00 0.00 0.00 92 1029.6